Location: Coupvray
(48.8929°N, 2.7967°E)
Time: 10:19:11
(UTC+00:00)

Altair 2 - Pass Details

Date: 26 January 2021
Orbit: 837 x 949 km, 90.2° (Epoch: 26 February)

Event Time Altitude Azimuth Distance (km) Brightness Sun altitude
Rises 06:06:52 0° 360° (N) 3,469 10.7 -13.1°
Reaches altitude 10° 06:09:16 10° 358° (N) 2,542 10.0 -12.7°
Maximum altitude 06:14:58 73° 276° (W) 941 7.8 -11.8°
Drops below altitude 10° 06:20:48 10° 192° (SSW) 2,601 10.3 -10.8°
Sets 06:23:16 0° 191° (S) 3,554 11.0 -10.5°
